Regional Weather Roundup
Issued by NWS Jackson, KY

Home | Current Version | Previous Version | Graphics & Text | Print | Product List | Glossary On
Versions: 1 2 3 4 5 6 7 8 9 10 11 12 13 14 15 16 17 18 19 20 21 22 23 24 25 26 27 28 29 30 31 32 33 34 35 36 37 38 39 40 41 42 43 44 45 46 47 48 49 50
201
ASUS43 KJKL 230110
RWRJKL

EAST KENTUCKY HOURLY WEATHER ROUNDUP
NATIONAL WEATHER SERVICE JACKSON KY
800 PM EST WED FEB 22 2017

NOTE: "FAIR" INDICATES FEW OR NO CLOUDS BELOW 12,000 FEET WITH
NO SIGNIFICANT WEATHER AND/OR OBSTRUCTIONS TO VISIBILITY.

* THESE REPORTS ARE NOT UNDER NWS QUALITY CONTROL AND MAY NOT
  REPORT WEATHER SUCH AS PRECIPITATION AND FOG.

KYZ079-080-083-085-087-088-110-112-115-119-120-230200
...EASTERN KENTUCKY...

CITY           SKY/WX    TMP DP  RH WIND       PRES   REMARKS
JACKSON        CLEAR     57  53  86 CALM      29.87S
LONDON         PTCLDY    59  53  80 S5        29.88R
SOMERSET*      CLOUDY    61  54  77 CALM      29.88S
MONTICELLO*    CLOUDY    56  54  93 W10       29.89R
WILLIAMSBURG*  CLEAR     57  55  94 SE7       29.89S
MIDDLESBORO*   CLOUDY    58  55  88 CALM      29.92S
HARLAN APT*    MOCLDY    57  52  82 CALM      29.91S
PIKE CO APT*     N/A     58  56  95 SE3       29.88S
BIG SANDY APT* PTCLDY    58  56  93 S5        29.87S
MOREHEAD APT*  CLOUDY    59  55  88 S5        29.88R
ASHLAND*       CLOUDY    55  54  94 CALM      29.85R
$$

KYZ035-036-041-042-044-050-067-078-099-230200
...CENTRAL KENTUCKY...

CITY           SKY/WX    TMP DP  RH WIND       PRES   REMARKS
MT STERLING*   MOCLDY    59  55  88 S3        29.87R
FLEMING/MASON* CLOUDY    60  56  89 S6        29.86R
DANVILLE*      PTCLDY    57  54  88 SW3       29.87R
LEXINGTON      CLOUDY    64  55  72 S10       29.85R
FRANKFORT      CLOUDY    64  54  69 CALM      29.82R
LOUISVILLE     CLOUDY    68  55  63 S6        29.82R
LEBANON*       MOCLDY    64  57  77 S8        29.85R
GLASGOW*       MOCLDY    64  55  75 S3        29.85R
BOWLING GREEN  CLOUDY    67  57  70 S8        29.84R
$$

KYZ091>093-OHZ055-061-077-WVZ005-015-034-035-042-230200
...SOUTHERN OHIO/WEST VIRGINIA...

CITY           SKY/WX    TMP DP  RH WIND       PRES   REMARKS
COVINGTON      PTCLDY    61  55  81 S6        29.82R
COLUMBUS       CLOUDY    59  54  83 S3        29.84R
DAYTON         CLOUDY    59  56  89 S7        29.83R
WILMINGTON     CLOUDY    57  55  93 SE5       29.83R
HUNTINGTON     CLOUDY    55  53  93 E3        29.87R
CHARLESTON     MOCLDY    57  53  86 CALM      29.87S
PINEVILLE*     MOCLDY    52  49  90 MISG      29.95S FOG
BECKLEY        CLOUDY    53  50  89 S5        29.91S
BLUEFIELD      CLOUDY    52  48  86 S6        29.94R
LOGAN CO APT*    N/A     57  54  88 S6        29.89R
$$

VAZ002-007-008-TNZ017-027-036-066-071-230200
...SOUTHWEST VIRGINIA/EAST TENNESSEE...

CITY           SKY/WX    TMP DP  RH WIND       PRES   REMARKS
WISE*          MOCLDY    54  54 100 CALM      29.94R
JONESVILLE*      N/A     54  54 100 CALM      29.94R
ABINGDON*      PTCLDY    54  54  99 CALM      29.93S FOG
BRISTOL        CLOUDY    53  53 100 CALM      29.92S FOG
MORRISTOWN*    CLEAR     55  55 100 CALM      29.91R
SEVIERVILLE*   MOCLDY    57  55  94 CALM      29.90S
KNOXVILLE      CLOUDY    59  55  87 E8        29.89S
LAFOLLETTE*    CLOUDY    57  55  94 CALM      29.94S
OAK RIDGE      CLOUDY    57  54  89 CALM      29.91S
CROSSVILLE     CLEAR     55  53  93 CALM      29.90R
NASHVILLE      PTCLDY    63  56  78 S5        29.85S
$$

...KEY TO REMARKS...
VSB - VISIBILITY IN MILES
WCI - WIND CHILL INDEX
HX  - HEAT INDEX

$$




USA.gov is the U.S. government's official web portal to all federal, state and local government web resources and services.